User: anonymous   Login
Location: Dayton
(39.7590°N, 84.1920°W)
Time: 11:41:13
(UTC-04:00)
Language:

Cosmos 1939 Rocket - Orbit

View from above orbital plane
View from above orbital plane
View from above satellite
View from above satellite

Ground track
Ground track

The orbit data is extracted from the following two-line orbital elements,

1 19046U 88032B   15086.10852537  .00002928  00000-0  23137-3 0  9992
2 19046 097.6213 140.2535 0041534 216.4103 143.4295 15.00779197450614
Epoch (UTC): 27 March 2015 02:36:16
Eccentricity: 0.0041534
inclination: 97.6213°
perigee height: 535 km
apogee height: 593 km
right ascension of ascending node: 140.2535°
argument of perigee: 216.4103°
revolutions per day: 15.00779197
mean anomaly at epoch: 143.4295°
orbit number at epoch: 45061

The dashed part of the orbit path shows where the satellite is in the earth's shadow,  

DLR